| time (UTC) | temp F | wind direction | speed MPH | gust MPH | rain 1hr in | rain 24hr in | rain mn in | humidity % | barometer mb |
| 20260506132015 | 53 | 0.0 | 2.0 | 0.00 | 0.00 | 0.00 | 72 | 1015.6 | |
| 20260506131015 | 52 | 0.0 | 1.0 | 0.00 | 0.00 | 0.00 | 74 | 1015.6 | |
| 20260506130016 | 51 | 0 | 1.0 | 2.0 | 0.00 | 0.00 | 0.00 | 74 | 1015.5 |
| 20260506125015 | 51 | 23 | 1.0 | 2.0 | 0.00 | 0.00 | 0.00 | 74 | 1015.5 |
| 20260506124015 | 52 | 0 | 2.0 | 3.0 | 0.00 | 0.00 | 0.00 | 74 | 1015.3 |
| 20260506123015 | 52 | 0 | 2.0 | 3.0 | 0.00 | 0.00 | 0.00 | 73 | 1015.2 |
| 20260506122015 | 52 | 23 | 1.0 | 3.0 | 0.00 | 0.00 | 0.00 | 71 | 1015.1 |
| 20260506121015 | 53 | 0 | 1.0 | 2.0 | 0.00 | 0.00 | 0.00 | 70 | 1015.1 |
| 20260506120015 | 53 | 0.0 | 0.0 | 0.00 | 0.02 | 0.00 | 69 | 1015.0 | |
| 20260506115015 | 54 | 0.0 | 0.0 | 0.00 | 0.02 | 0.00 | 67 | 1015.1 | |
| 20260506114015 | 54 | 0 | 1.0 | 2.0 | 0.00 | 0.02 | 0.00 | 67 | 1015.0 |
| 20260506113015 | 54 | 0.0 | 1.0 | 0.00 | 0.02 | 0.00 | 65 | 1014.9 | |
| 20260506112015 | 54 | 45 | 2.0 | 4.0 | 0.00 | 0.02 | 0.00 | 65 | 1014.9 |
| 20260506111015 | 54 | 45 | 2.0 | 3.0 | 0.00 | 0.02 | 0.00 | 65 | 1014.8 |
| 20260506110015 | 54 | 68 | 2.0 | 4.0 | 0.00 | 0.04 | 0.00 | 64 | 1014.7 |
| 20260506105015 | 54 | 45 | 2.0 | 4.0 | 0.00 | 0.04 | 0.00 | 63 | 1014.7 |
| 20260506104015 | 55 | 45 | 2.0 | 3.0 | 0.00 | 0.04 | 0.00 | 62 | 1014.6 |
| 20260506103015 | 55 | 23 | 2.0 | 3.0 | 0.00 | 0.04 | 0.00 | 62 | 1014.5 |
| 20260506102015 | 55 | 23 | 2.0 | 3.0 | 0.00 | 0.04 | 0.00 | 60 | 1014.3 |
| 20260506101015 | 55 | 23 | 2.0 | 3.0 | 0.00 | 0.04 | 0.00 | 61 | 1014.2 |
| 20260506100015 | 55 | 23 | 2.0 | 3.0 | 0.00 | 0.07 | 0.00 | 59 | 1014.2 |
| 20260506095015 | 56 | 45 | 2.0 | 3.0 | 0.00 | 0.07 | 0.00 | 59 | 1014.2 |
| 20260506094015 | 56 | 90 | 2.0 | 3.0 | 0.00 | 0.07 | 0.00 | 57 | 1014.2 |
| 20260506093015 | 57 | 90 | 1.0 | 3.0 | 0.00 | 0.07 | 0.00 | 55 | 1014.2 |
| 20260506092015 | 57 | 90 | 2.0 | 4.0 | 0.00 | 0.07 | 0.00 | 54 | 1014.1 |
| 20260506091015 | 58 | 45 | 1.0 | 3.0 | 0.00 | 0.07 | 0.00 | 51 | 1014.2 |
| 20260506090015 | 59 | 0.0 | 2.0 | 0.00 | 0.11 | 0.00 | 48 | 1014.0 | |
| 20260506085015 | 60 | 23 | 1.0 | 3.0 | 0.00 | 0.11 | 0.00 | 47 | 1014.0 |
| 20260506084015 | 60 | 315 | 2.0 | 4.0 | 0.00 | 0.11 | 0.00 | 46 | 1014.0 |
| 20260506083015 | 61 | 68 | 1.0 | 3.0 | 0.00 | 0.11 | 0.00 | 44 | 1014.1 |
| 20260506082015 | 61 | 293 | 3.0 | 9.0 | 0.00 | 0.11 | 0.00 | 42 | 1014.2 |
| 20260506081015 | 61 | 293 | 6.0 | 11.0 | 0.00 | 0.11 | 0.00 | 41 | 1014.2 |
| 20260506073015 | 61 | 270 | 3.0 | 9.0 | 0.00 | 0.17 | 0.00 | 42 | 1014.1 |
| 20260506072015 | 61 | 293 | 3.0 | 8.0 | 0.00 | 0.17 | 0.00 | 42 | 1014.2 |
| 20260506071015 | 61 | 270 | 5.0 | 9.0 | 0.00 | 0.17 | 0.00 | 41 | 1014.3 |
| 20260506062016 | 62 | 293 | 6.0 | 10.0 | 0.00 | 0.25 | 0.17 | 42 | 1014.0 |
| 20260506061016 | 62 | 293 | 7.0 | 11.0 | 0.00 | 0.25 | 0.17 | 43 | 1014.1 |
| 20260506051015 | 63 | 270 | 3.0 | 7.0 | 0.00 | 0.37 | 0.17 | 44 | 1013.7 |
| 20260506045016 | 63 | 270 | 5.0 | 10.0 | 0.00 | 0.40 | 0.17 | 44 | 1013.4 |
| 20260506044015 | 63 | 293 | 6.0 | 10.0 | 0.00 | 0.40 | 0.17 | 45 | 1013.3 |
| 20260506043016 | 64 | 293 | 3.0 | 7.0 | 0.00 | 0.40 | 0.17 | 48 | 1013.3 |
| 20260506042016 | 64 | 270 | 3.0 | 7.0 | 0.00 | 0.40 | 0.17 | 48 | 1013.2 |
| 20260506041016 | 64 | 270 | 5.0 | 12.0 | 0.00 | 0.40 | 0.17 | 48 | 1013.1 |
| 20260506040016 | 64 | 270 | 5.0 | 9.0 | 0.00 | 0.40 | 0.17 | 47 | 1012.8 |
| 20260506035015 | 64 | 293 | 5.0 | 10.0 | 0.00 | 0.40 | 0.17 | 45 | 1012.8 |
| 20260506034015 | 65 | 270 | 4.0 | 9.0 | 0.00 | 0.40 | 0.17 | 43 | 1012.5 |
| 20260506033015 | 65 | 293 | 2.0 | 7.0 | 0.00 | 0.40 | 0.17 | 42 | 1012.3 |
| 20260506032015 | 65 | 293 | 3.0 | 7.0 | 0.00 | 0.40 | 0.17 | 41 | 1012.3 |
| 20260506031015 | 66 | 293 | 3.0 | 7.0 | 0.00 | 0.40 | 0.17 | 40 | 1011.9 |
| 20260506030016 | 66 | 270 | 4.0 | 10.0 | 0.00 | 0.46 | 0.17 | 39 | 1011.9 |
| 20260506025015 | 66 | 270 | 3.0 | 8.0 | 0.00 | 0.46 | 0.17 | 39 | 1011.8 |
| 20260506024015 | 66 | 270 | 7.0 | 11.0 | 0.00 | 0.46 | 0.17 | 38 | 1011.6 |
| 20260506023016 | 67 | 270 | 5.0 | 9.0 | 0.00 | 0.46 | 0.17 | 36 | 1011.5 |
| 20260506022016 | 67 | 270 | 7.0 | 12.0 | 0.00 | 0.46 | 0.17 | 35 | 1011.2 |
| 20260506021016 | 67 | 270 | 5.0 | 10.0 | 0.00 | 0.46 | 0.17 | 33 | 1011.1 |
| 20260506020015 | 68 | 270 | 7.0 | 13.0 | 0.00 | 0.50 | 0.17 | 32 | 1010.9 |
| 20260506015015 | 69 | 270 | 6.0 | 12.0 | 0.00 | 0.50 | 0.17 | 33 | 1010.9 |
| 20260506014015 | 69 | 270 | 7.0 | 12.0 | 0.00 | 0.50 | 0.17 | 34 | 1010.8 |
| 20260506013016 | 70 | 270 | 7.0 | 11.0 | 0.00 | 0.50 | 0.17 | 34 | 1010.7 |
| 20260506012015 | 70 | 248 | 7.0 | 14.0 | 0.00 | 0.50 | 0.17 | 34 | 1010.6 |
| 20260506011016 | 70 | 270 | 9.0 | 20.0 | 0.00 | 0.50 | 0.17 | 34 | 1010.6 |
| 20260506010015 | 71 | 270 | 7.0 | 14.0 | 0.00 | 0.51 | 0.17 | 33 | 1010.4 |
| 20260506005016 | 72 | 270 | 10.0 | 16.0 | 0.00 | 0.51 | 0.17 | 31 | 1010.3 |
| 20260506004015 | 72 | 248 | 7.0 | 12.0 | 0.00 | 0.51 | 0.17 | 29 | 1010.3 |
| 20260506003015 | 72 | 225 | 3.0 | 10.0 | 0.00 | 0.51 | 0.17 | 30 | 1010.2 |
| 20260506002015 | 72 | 248 | 6.0 | 10.0 | 0.00 | 0.51 | 0.17 | 31 | 1010.1 |
| 20260506001016 | 73 | 248 | 6.0 | 14.0 | 0.00 | 0.51 | 0.17 | 29 | 1010.2 |
| 20260506000016 | 74 | 270 | 6.0 | 11.0 | 0.00 | 0.51 | 0.17 | 27 | 1010.0 |
| 20260505235015 | 74 | 270 | 6.0 | 11.0 | 0.00 | 0.51 | 0.17 | 29 | 1009.9 |
| 20260505234015 | 74 | 248 | 5.0 | 12.0 | 0.00 | 0.51 | 0.17 | 28 | 1009.8 |
| 20260505233015 | 75 | 248 | 4.0 | 9.0 | 0.00 | 0.51 | 0.17 | 28 | 1009.9 |
| 20260505232015 | 75 | 248 | 6.0 | 13.0 | 0.00 | 0.51 | 0.17 | 27 | 1009.8 |
| 20260505231015 | 75 | 248 | 6.0 | 13.0 | 0.00 | 0.51 | 0.17 | 28 | 1009.8 |
| 20260505230015 | 74 | 270 | 5.0 | 10.0 | 0.00 | 0.51 | 0.17 | 31 | 1009.9 |
| 20260505225015 | 72 | 270 | 5.0 | 10.0 | 0.00 | 0.51 | 0.17 | 33 | 1010.0 |
| 20260505224015 | 73 | 248 | 5.0 | 10.0 | 0.00 | 0.51 | 0.17 | 33 | 1010.1 |
| 20260505223015 | 74 | 248 | 5.0 | 14.0 | 0.00 | 0.51 | 0.17 | 32 | 1010.3 |
| 20260505222015 | 73 | 248 | 6.0 | 12.0 | 0.00 | 0.51 | 0.17 | 31 | 1010.4 |
| 20260505221015 | 74 | 225 | 5.0 | 10.0 | 0.00 | 0.51 | 0.17 | 31 | 1010.6 |
| 20260505220015 | 74 | 203 | 3.0 | 10.0 | 0.00 | 0.51 | 0.17 | 32 | 1010.7 |
| 20260505215015 | 73 | 225 | 7.0 | 12.0 | 0.00 | 0.51 | 0.17 | 34 | 1010.8 |
| 20260505214015 | 75 | 203 | 7.0 | 17.0 | 0.00 | 0.51 | 0.17 | 31 | 1010.9 |
| 20260505213015 | 75 | 248 | 6.0 | 12.0 | 0.00 | 0.51 | 0.17 | 30 | 1011.0 |
| 20260505212016 | 75 | 225 | 8.0 | 17.0 | 0.00 | 0.51 | 0.17 | 30 | 1011.2 |
| 20260505211020 | 75 | 225 | 7.0 | 21.0 | 0.00 | 0.51 | 0.17 | 26 | 1011.2 |
| 20260505210015 | 75 | 225 | 8.0 | 18.0 | 0.00 | 0.51 | 0.17 | 29 | 1011.4 |
| 20260505205015 | 75 | 248 | 8.0 | 20.0 | 0.00 | 0.51 | 0.17 | 29 | 1011.4 |
| 20260505204015 | 74 | 248 | 7.0 | 15.0 | 0.00 | 0.51 | 0.17 | 29 | 1011.4 |
| 20260505203015 | 74 | 248 | 10.0 | 17.0 | 0.00 | 0.51 | 0.17 | 31 | 1011.4 |
| 20260505202015 | 74 | 225 | 7.0 | 17.0 | 0.00 | 0.51 | 0.17 | 33 | 1011.5 |
| 20260505201015 | 74 | 203 | 10.0 | 21.0 | 0.00 | 0.51 | 0.17 | 39 | 1011.5 |
| 20260505200015 | 71 | 248 | 8.0 | 20.0 | 0.00 | 0.51 | 0.17 | 39 | 1011.5 |
| 20260505195015 | 70 | 293 | 3.0 | 14.0 | 0.00 | 0.51 | 0.17 | 50 | 1011.7 |
| 20260505194015 | 69 | 293 | 3.0 | 6.0 | 0.00 | 0.51 | 0.17 | 52 | 1011.6 |
| 20260505193015 | 70 | 248 | 1.0 | 6.0 | 0.00 | 0.51 | 0.17 | 51 | 1011.8 |
| 20260505192015 | 70 | 203 | 1.0 | 3.0 | 0.00 | 0.51 | 0.17 | 51 | 1011.8 |
| 20260505191015 | 71 | 203 | 2.0 | 7.0 | 0.00 | 0.51 | 0.17 | 49 | 1012.0 |
| 20260505190015 | 70 | 23 | 2.0 | 4.0 | 0.00 | 0.51 | 0.17 | 51 | 1012.1 |
| 20260505185015 | 70 | 293 | 3.0 | 5.0 | 0.00 | 0.51 | 0.17 | 52 | 1012.2 |
| 20260505184015 | 69 | 203 | 2.0 | 4.0 | 0.00 | 0.51 | 0.17 | 54 | 1012.6 |
| 20260505183015 | 68 | 270 | 3.0 | 7.0 | 0.00 | 0.51 | 0.17 | 55 | 1012.5 |
| 20260505182015 | 68 | 248 | 2.0 | 4.0 | 0.00 | 0.51 | 0.17 | 56 | 1012.7 |
| 20260505181015 | 67 | 203 | 1.0 | 6.0 | 0.00 | 0.51 | 0.17 | 59 | 1012.7 |
| 20260505180020 | 68 | 113 | 2.0 | 7.0 | 0.00 | 0.51 | 0.17 | 58 | 1012.8 |
| 20260505175015 | 67 | 68 | 1.0 | 3.0 | 0.00 | 0.51 | 0.17 | 59 | 1012.8 |
| 20260505174015 | 67 | 113 | 1.0 | 4.0 | 0.00 | 0.51 | 0.17 | 59 | 1012.8 |
| 20260505173015 | 66 | 248 | 1.0 | 6.0 | 0.00 | 0.51 | 0.17 | 62 | 1012.8 |
| 20260505172015 | 65 | 225 | 1.0 | 3.0 | 0.00 | 0.51 | 0.17 | 64 | 1012.8 |
| 20260505171015 | 65 | 203 | 3.0 | 6.0 | 0.00 | 0.51 | 0.17 | 64 | 1012.8 |
| 20260505170015 | 65 | 203 | 2.0 | 4.0 | 0.00 | 0.51 | 0.17 | 65 | 1012.7 |
| 20260505165015 | 64 | 0 | 2.0 | 9.0 | 0.00 | 0.51 | 0.17 | 65 | 1012.8 |
| 20260505164015 | 64 | 68 | 3.0 | 7.0 | 0.00 | 0.51 | 0.17 | 70 | 1012.7 |
| 20260505163015 | 62 | 135 | 1.0 | 3.0 | 0.00 | 0.51 | 0.17 | 75 | 1012.9 |
| 20260505162020 | 62 | 0.0 | 3.0 | 0.00 | 0.51 | 0.17 | 76 | 1013.0 | |
| 20260505161015 | 62 | 0.0 | 0.0 | 0.00 | 0.51 | 0.17 | 76 | 1013.0 | |
| 20260505153015 | 61 | 0.0 | 2.0 | 0.00 | 0.51 | 0.17 | 77 | 1012.7 | |
| 20260505152015 | 61 | 0.0 | 3.0 | 0.00 | 0.51 | 0.17 | 77 | 1012.7 | |
| 20260505151015 | 61 | 0.0 | 2.0 | 0.00 | 0.51 | 0.17 | 79 | 1012.7 | |
| 20260505140518 | 60 | 68 | 1.0 | 2.0 | 0.00 | 0.51 | 0.17 | 79 | 1012.2 |